When you browse on this site, cookies collect data to enhance your experience and personalize the content and advertising you see.
Visit our Privacy Policy to learn more. By continuing to use the site, you agree to this use of cookies and data.
  • Em Portugal
  • Lista de países
  • Para 7 dias
  • Temperatura da água
  • Mapas de satélite
  • Mapa do tempo
  • Widgets de tempo
  • user-avatar
    Iniciar Sessão

    Previsão horária em Suhochevo

    Hoje, 18 Fevereiro, Segunda-feira

    Tempo Temperatura Precipitação Vento Pressão Humidade
    00:00 -5°C° 0 mm 6 m/s 742 mmHg 82%
    01:00 -5°C° 0 mm 6 m/s 743 mmHg 82%
    02:00 -5°C° 0 mm 4 m/s 743 mmHg 85%
    03:00 -7°C° 0 mm 5 m/s 744 mmHg 85%
    04:00 -7°C° 0 mm 5 m/s 744 mmHg 85%
    05:00 -8°C° 0 mm 6 m/s 745 mmHg 86%
    06:00 -9°C° 0 mm 6 m/s 746 mmHg 87%
    07:00 -9°C° 0 mm 6 m/s 746 mmHg 87%
    08:00 -9°C° 0 mm 6 m/s 746 mmHg 88%
    09:00 -8°C° 0 mm 6 m/s 747 mmHg 87%
    10:00 -8°C° 0 mm 6 m/s 748 mmHg 86%
    11:00 -6°C° 0 mm 6 m/s 748 mmHg 86%
    12:00 -6°C° 0 mm 6 m/s 749 mmHg 84%
    13:00 -6°C° 0 mm 6 m/s 749 mmHg 83%
    14:00 -6°C° 0 mm 6 m/s 750 mmHg 81%
    15:00 -6°C° 0 mm 5 m/s 750 mmHg 83%
    16:00 -7°C° 0 mm 4 m/s 750 mmHg 84%
    17:00 -7°C° 0 mm 4 m/s 751 mmHg 85%
    18:00 -7°C° 0 mm 3 m/s 751 mmHg 86%
    19:00 -9°C° 0 mm 3 m/s 752 mmHg 88%
    20:00 -10°C° 0 mm 3 m/s 752 mmHg 89%
    21:00 -10°C° 0 mm 2 m/s 752 mmHg 90%
    22:00 -10°C° 0 mm 2 m/s 753 mmHg 91%
    23:00 -12°C° 0 mm 2 m/s 753 mmHg 92%

    Amanhã, 19 Fevereiro, Terça-feira

    Tempo Temperatura Precipitação Vento Pressão Humidade
    00:00 -10°C° 0 mm 1 m/s 753 mmHg 92%
    01:00 -11°C° 0 mm 1 m/s 754 mmHg 92%
    02:00 -11°C° 0 mm 1 m/s 754 mmHg 93%
    03:00 -11°C° 0 mm 1 m/s 754 mmHg 92%
    04:00 -11°C° 0 mm 1 m/s 754 mmHg 91%
    05:00 -11°C° 0 mm 1 m/s 754 mmHg 91%
    06:00 -13°C° 0 mm 2 m/s 754 mmHg 90%
    07:00 -13°C° 0 mm 2 m/s 754 mmHg 90%
    08:00 -12°C° 0 mm 2 m/s 754 mmHg 90%
    09:00 -12°C° 0 mm 3 m/s 754 mmHg 90%
    10:00 -9°C° 0 mm 3 m/s 753 mmHg 89%
    11:00 -8°C° 0 mm 4 m/s 753 mmHg 89%
    12:00 -8°C° 0 mm 4 m/s 752 mmHg 88%
    13:00 -7°C° 0 mm 5 m/s 752 mmHg 88%
    14:00 -6°C° 0 mm 5 m/s 752 mmHg 87%
    15:00 -7°C° 0 mm 5 m/s 751 mmHg 88%
    16:00 -7°C° 0 mm 5 m/s 751 mmHg 89%
    17:00 -8°C° 0 mm 5 m/s 750 mmHg 89%
    18:00 -8°C° 0 mm 5 m/s 750 mmHg 90%
    19:00 -9°C° 0 mm 6 m/s 749 mmHg 90%
    20:00 -9°C° 0 mm 6 m/s 749 mmHg 91%
    21:00 -9°C° 0 mm 6 m/s 749 mmHg 90%
    22:00 -9°C° 0 mm 6 m/s 748 mmHg 89%
    23:00 -10°C° 0 mm 6 m/s 748 mmHg 89%

    Depois de amanhã, 20 Fevereiro, Quarta-feira

    Tempo Temperatura Precipitação Vento Pressão Humidade
    00:00 -9°C° 0 mm 6 m/s 747 mmHg 89%
    01:00 -9°C° 0 mm 7 m/s 747 mmHg 89%
    02:00 -9°C° 0 mm 7 m/s 746 mmHg 89%
    03:00 -9°C° 0 mm 7 m/s 745 mmHg 89%
    04:00 -9°C° 0 mm 7 m/s 745 mmHg 89%
    05:00 -8°C° 0 mm 7 m/s 744 mmHg 89%
    06:00 -8°C° 0 mm 7 m/s 744 mmHg 90%
    07:00 -8°C° 0 mm 7 m/s 743 mmHg 91%
    08:00 -7°C° 0 mm 7 m/s 743 mmHg 93%
    09:00 -6°C° 0 mm 7 m/s 743 mmHg 93%
    10:00 -6°C° 0 mm 7 m/s 742 mmHg 94%
    11:00 -4°C° 0 mm 7 m/s 742 mmHg 94%
    12:00 -3°C° 0.1 mm 7 m/s 742 mmHg 94%
    13:00 -3°C° 0.1 mm 7 m/s 742 mmHg 94%
    14:00 -2°C° 0.1 mm 6 m/s 742 mmHg 94%
    15:00 -2°C° 0.1 mm 6 m/s 742 mmHg 94%
    16:00 -2°C° 0.1 mm 6 m/s 742 mmHg 93%
    17:00 -1°C° 0.1 mm 5 m/s 741 mmHg 93%
    18:00 -1°C° 0 mm 5 m/s 742 mmHg 93%
    19:00 -1°C° 0 mm 5 m/s 742 mmHg 93%
    20:00 -1°C° 0 mm 5 m/s 742 mmHg 94%
    21:00 -1°C° 0 mm 5 m/s 741 mmHg 93%
    22:00 -1°C° 0 mm 5 m/s 741 mmHg 92%
    23:00 -1°C° 0 mm 5 m/s 741 mmHg 91%

    21 Fevereiro, Quinta-feira

    Tempo Temperatura Precipitação Vento Pressão Humidade
    00:00 -2°C° 0 mm 6 m/s 741 mmHg 91%
    01:00 -2°C° 0 mm 6 m/s 740 mmHg 92%
    02:00 -3°C° 0 mm 6 m/s 740 mmHg 92%
    03:00 -3°C° 0.1 mm 6 m/s 740 mmHg 92%
    04:00 -2°C° 0.1 mm 7 m/s 739 mmHg 91%
    05:00 -2°C° 0.1 mm 7 m/s 739 mmHg 91%
    06:00 -3°C° 0.1 mm 7 m/s 739 mmHg 88%
    07:00 -3°C° 0.1 mm 7 m/s 740 mmHg 86%
    08:00 -4°C° 0.1 mm 7 m/s 740 mmHg 84%
    09:00 -4°C° 0 mm 6 m/s 740 mmHg 85%
    10:00 -5°C° 0 mm 6 m/s 740 mmHg 86%
    11:00 -5°C° 0 mm 6 m/s 740 mmHg 88%
    12:00 -5°C° 0.1 mm 6 m/s 741 mmHg 86%
    13:00 -5°C° 0.1 mm 6 m/s 741 mmHg 85%
    14:00 -6°C° 0.1 mm 7 m/s 741 mmHg 84%
    15:00 -5°C° 0.1 mm 6 m/s 741 mmHg 84%
    16:00 -5°C° 0.1 mm 6 m/s 742 mmHg 83%
    17:00 -6°C° 0.1 mm 6 m/s 742 mmHg 82%
    18:00 -8°C° 0 mm 6 m/s 743 mmHg 82%
    19:00 -8°C° 0 mm 5 m/s 744 mmHg 82%
    20:00 -10°C° 0 mm 5 m/s 744 mmHg 82%
    21:00 -11°C° 0 mm 5 m/s 745 mmHg 83%
    22:00 -12°C° 0 mm 5 m/s 745 mmHg 85%
    23:00 -11°C° 0 mm 4 m/s 746 mmHg 86%

    22 Fevereiro, Sexta-feira

    Tempo Temperatura Precipitação Vento Pressão Humidade
    00:00 -12°C° 0 mm 4 m/s 746 mmHg 86%
    01:00 -12°C° 0 mm 4 m/s 747 mmHg 86%
    02:00 -14°C° 0 mm 4 m/s 747 mmHg 86%
    03:00 -14°C° 0 mm 4 m/s 748 mmHg 87%
    04:00 -14°C° 0 mm 4 m/s 748 mmHg 87%
    05:00 -14°C° 0 mm 5 m/s 749 mmHg 87%
    06:00 -14°C° 0 mm 5 m/s 750 mmHg 87%
    07:00 -15°C° 0 mm 5 m/s 750 mmHg 86%
    08:00 -15°C° 0 mm 5 m/s 751 mmHg 86%
    09:00 -15°C° 0 mm 6 m/s 752 mmHg 84%
    10:00 -15°C° 0 mm 6 m/s 752 mmHg 82%
    11:00 -14°C° 0 mm 7 m/s 753 mmHg 81%
    12:00 -14°C° 0 mm 7 m/s 753 mmHg 79%
    13:00 -13°C° 0 mm 7 m/s 753 mmHg 78%
    14:00 -12°C° 0 mm 6 m/s 754 mmHg 77%
    15:00 -12°C° 0 mm 6 m/s 754 mmHg 79%
    16:00 -13°C° 0 mm 5 m/s 755 mmHg 80%
    17:00 -14°C° 0 mm 4 m/s 755 mmHg 82%
    18:00 -14°C° 0 mm 4 m/s 755 mmHg 84%
    19:00 -14°C° 0 mm 4 m/s 756 mmHg 86%
    20:00 -15°C° 0 mm 4 m/s 756 mmHg 88%
    21:00 -15°C° 0 mm 4 m/s 757 mmHg 88%
    22:00 -15°C° 0 mm 4 m/s 757 mmHg 89%
    23:00 -16°C° 0 mm 4 m/s 758 mmHg 90%

    23 Fevereiro, Sábado

    Tempo Temperatura Precipitação Vento Pressão Humidade
    00:00 -16°C° 0 mm 3 m/s 758 mmHg 91%
    01:00 -16°C° 0 mm 3 m/s 758 mmHg 92%
    02:00 -17°C° 0 mm 3 m/s 758 mmHg 93%
    03:00 -17°C° 0 mm 3 m/s 758 mmHg 93%
    04:00 -17°C° 0 mm 3 m/s 758 mmHg 94%
    05:00 -18°C° 0 mm 3 m/s 758 mmHg 94%
    06:00 -18°C° 0 mm 3 m/s 758 mmHg 94%
    07:00 -18°C° 0 mm 3 m/s 758 mmHg 94%
    08:00 -17°C° 0 mm 3 m/s 758 mmHg 94%
    09:00 -16°C° 0 mm 3 m/s 758 mmHg 92%
    10:00 -15°C° 0 mm 3 m/s 758 mmHg 90%
    11:00 -14°C° 0 mm 3 m/s 758 mmHg 89%
    12:00 -13°C° 0 mm 3 m/s 757 mmHg 87%
    13:00 -10°C° 0 mm 2 m/s 757 mmHg 86%
    14:00 -10°C° 0 mm 2 m/s 756 mmHg 85%
    15:00 -12°C° 0 mm 2 m/s 756 mmHg 85%
    16:00 -12°C° 0 mm 2 m/s 756 mmHg 85%
    17:00 -11°C° 0 mm 1 m/s 755 mmHg 85%
    18:00 -12°C° 0 mm 1 m/s 755 mmHg 85%
    19:00 -12°C° 0 mm 1 m/s 755 mmHg 85%
    20:00 -12°C° 0 mm 1 m/s 755 mmHg 85%
    21:00 -13°C° 0 mm 1 m/s 755 mmHg 86%
    22:00 -13°C° 0 mm 1 m/s 755 mmHg 87%
    23:00 -13°C° 0 mm 1 m/s 755 mmHg 88%
    Mostrar mais